SCP
-0 -0 -0 -0 -0 -0 -0 -0 -0 -0 -0 -0 -0 -0 -0 -0 -0 -0 -0 -0 -0 0 0 0 0 0 0 0 -0 -0 -0 -0 -0 -0 -0 -0 -0 -0 -0 -0 0 0 0
-1 -0 -0 -0 -0 -0 -0 -0 -0 -0 -0 -0 -0 -0 -0 -0 -0 -0 -0 -0 -0 0 0 0 0 0 0 -0 -0 -0 -0 -0 -0 -0 -0 -0 -0 -0 0 0 0 0 0
-0 -0 -0 -0 -0 -0 -0 -0 -0 -0 -0 -0 -0 -0 -0 -0 -0 -0 -0 -0 -0 -0 0 0 0 -0 -0 -0 -0 -0 -0 -0 -0 -0 -0 -0 0 -0 0 0 0 0 0
-1 -0 -0 -0 -0 -0 -0 -0 -0 -0 -0 -0 -0 -0 -0 -0 -0 -0 -0 -0 -0 -0 0 -0 -0 -0 -0 -0 -0 -0 -0 -0 -0 -0 0 0 0 0 -0 0 0 0 0
-0 -0 -0 -0 -0 -0 -0 -0 -0 -0 -0 -0 -0 -0 -0 -0 -0 -0 -0 0 0 0 -0 -0 -0 -0 -0 -0 -0 -0 0 -0 -0 0 0 0 0 0 0 0 0 0 0
-0 -0 -0 -0 -0 -0 -0 -0 -0 -0 -0 -0 -0 -0 -0 -0 -0 -0 -0 0 0 0 0 0 0 0 0 0 0 0 0 -0 0 0 0 0 0 0 0 0 0 0 0
0 0 -0 -0 -0 -0 -0 -0 -0 -0 -0 -0 -0 -0 -0 -0 -0 -0 -0 0 0 0 0 0 0 0 0 0 0 0 0 0 0 0 0 0 0 0 0 0 0 0 0
0 0 0 -0 -0 -0 -0 -0 -0 -0 -0 -0 -0 -0 -0 -0 -0 -0 0 0 0 0 0 0 0 0 0 0 0 0 0 0 0 0 0 0 0 1 1 1 0 0 0
1 1 1 0 0 -0 -0 -0 -0 -0 -0 -0 -0 -0 -0 -0 -0 -0 0 0 0 0 0 0 0 0 0 0 0 0 0 0 0 0 0 0 1 1 1 1 1 1 1
1 1 1 1 0 0 0 -0 -0 -0 -0 -0 -0 -0 -0 -0 -0 0 0 0 0 0 0 0 0 0 0 0 0 0 0 0 0 0 0 0 1 1 2 1 1 1 1
1 1 1 1 0 0 0 0 0 -0 0 -0 -0 0 0 0 0 0 0 0 0 0 0 0 0 0 0 0 0 0 0 0 0 0 0 0 0 2 2 2 1 1 1
0 0 0 0 0 0 1 0 0 0 0 0 0 0 0 0 0 0 0 0 0 0 0 0 0 0 0 0 0 0 0 0 0 0 0 0 0 2 2 1 1 1 1
0 0 0 0 0 0 1 0 0 0 0 0 0 0 -0 -0 -0 -0 0 0 0 0 0 0 0 0 0 0 0 0 0 0 0 0 0 0 1 2 2 2 1 1 1
0 0 0 0 0 0 0 0 0 0 0 0 0 0 -0 -0 -0 0 0 0 0 0 0 0 0 0 0 0 0 0 0 0 0 0 0 0 1 2 1 1 1 1 1
0 0 0 0 0 0 0 0 0 0 0 0 0 -0 -0 -0 -0 -0 0 0 0 0 0 0 0 0 0 0 0 0 0 0 0 0 0 0 1 1 1 1 1 1 1
1 0 0 0 0 0 0 0 0 0 0 0 0 -0 -0 -0 -0 -0 0 0 0 0 0 0 0 0 0 0 0 0 0 0 0 0 0 0 1 1 1 1 1 2 1
6 4 0 0 1 0 0 0 0 0 0 0 0 0 -0 -0 -0 -0 0 0 0 1 1 0 0 0 0 0 0 0 0 0 0 0 0 0 1 0 1 0 1 0 0
2 1 2 2 0 2 1 0 0 1 0 0 0 0 -0 -0 0 1 0 1 1 1 1 0 0 0 0 0 0 0 0 0 0 0 0 0 1 1 0 0 1 1 0
1 1 1 0 1 2 4 3 2 2 1 2 1 1 0 1 1 1 1 1 2 1 1 1 1 1 0 0 0 1 0 0 0 0 0 0 0 1 0 0 0 0 0
0 0 1 1 1 0 3 4 3 2 3 1 1 1 1 1 1 1 1 2 1 1 1 1 1 1 1 1 1 1 1 1 1 1 1 1 1 1 0 0 0 0 1
1 0 0 0 0 2 2 3 3 2 2 2 2 2 2 1 1 1 2 1 1 1 1 1 1 1 1 1 1 1 1 1 1 1 1 1 1 0 0 0 0 0 0
1 0 0 1 2 1 1 2 2 2 2 2 2 2 1 2 2 2 1 2 1 1 1 2 1 1 1 1 1 1 1 0 0 0 0 0 0 0 0 0 0 0 0
1 0 0 0 0 1 0 1 2 1 1 2 2 2 3 3 2 2 1 1 1 1 1 1 1 1 1 1 1 1 1 0 0 0 0 0 0 0 0 0 0 0 0
1 1 0 0 0 0 0 1 0 1 1 1 2 2 2 2 1 1 1 1 1 1 0 0 1 0 0 0 0 1 1 1 0 0 0 0 0 0 0 0 0 0 0
1 0 0 0 2 1 1 1 1 1 2 2 2 1 1 0 1 0 0 0 0 0 0 0 0 0 0 0 0 0 0 0 0 0 0 0 0 0 0 0 0 0 0
2 1 1 1 0 1 1 0 1 1 1 2 1 0 0 0 0 0 0 0 0 0 0 0 0 0 0 0 0 0 0 0 0 0 0 0 0 0 0 0 0 0 0
Wind_Speed_500mb
64 63 57 54 54 51 49 44 39 35 32 32 32 34 35 37 37 38 38 36 35 32 31 29 25 24 23 19 16 13 13 14 16 16 15 17 15 13 11 14 12 18 18
59 62 58 53 52 52 49 44 39 35 31 30 31 33 36 39 38 36 35 31 28 25 24 22 21 21 21 18 17 17 17 17 17 19 22 26 27 18 10 9 9 11 10
60 61 57 55 51 50 47 43 38 34 30 28 29 31 35 37 36 33 31 26 22 19 17 17 17 17 18 16 16 17 18 19 24 23 18 15 21 20 19 12 7 4 3
58 58 57 54 52 48 46 42 37 33 30 27 27 29 33 35 34 29 27 24 19 16 15 14 14 14 15 16 16 18 21 27 29 27 21 12 12 15 16 17 12 9 6
62 57 54 53 50 48 45 41 36 32 30 26 24 25 29 31 30 26 24 22 17 14 11 11 12 15 16 15 16 18 22 27 29 23 17 8 9 14 21 23 18 15 12
62 56 53 50 48 46 45 42 37 33 30 26 23 22 25 29 27 24 20 18 15 12 12 12 12 14 15 15 15 15 18 25 23 17 13 7 9 28 29 23 20 18 17
61 57 53 49 46 44 44 43 40 35 31 26 21 19 21 25 25 22 19 15 14 12 11 12 11 11 12 12 10 9 11 15 13 11 12 10 14 23 20 23 23 21 21
59 59 55 50 44 42 42 42 41 37 32 27 22 18 19 22 22 19 16 13 11 9 8 8 8 7 5 3 2 1 3 8 12 14 5 6 15 32 31 26 27 28 27
45 57 56 52 47 43 43 42 41 38 34 28 21 18 18 20 22 19 15 12 9 7 6 4 4 4 4 6 8 10 11 13 17 19 19 20 19 28 32 33 36 37 37
39 48 55 54 51 51 50 46 43 40 35 30 24 21 21 22 23 22 17 13 10 7 6 6 6 9 11 15 18 20 21 26 27 31 32 28 35 32 35 42 45 48 49
47 43 55 55 55 55 56 54 49 45 40 36 32 29 27 25 25 24 20 15 10 9 8 8 10 13 16 20 23 26 27 26 27 34 37 32 27 32 43 46 48 56 58
51 49 65 61 59 58 56 54 51 47 43 39 36 32 30 26 23 21 18 12 11 11 12 14 16 20 21 24 28 30 28 22 25 29 25 24 32 40 49 51 56 57 59
51 47 68 64 61 58 57 53 49 44 40 36 32 30 28 26 22 16 17 9 9 7 15 18 17 22 17 19 28 28 22 28 29 33 30 34 43 47 53 59 52 57 62
58 50 64 63 61 55 53 52 47 42 37 33 30 30 29 28 26 10 11 14 3 7 14 15 19 21 21 24 29 31 30 36 47 50 48 44 52 52 54 49 55 60 60
65 55 53 52 59 54 47 46 43 40 35 30 26 27 32 26 21 16 11 7 9 8 12 15 21 25 29 25 27 30 35 45 45 45 45 45 45 47 48 52 60 61 66
70 74 62 59 55 53 44 35 42 36 29 26 24 18 28 29 22 19 12 19 7 12 14 12 14 19 29 32 32 31 37 46 51 53 51 52 53 57 64 56 52 59 73
59 72 75 66 57 53 44 27 32 27 27 21 15 15 18 26 24 19 15 14 11 5 11 18 29 34 36 34 35 36 37 41 39 43 43 47 56 50 63 56 45 64 83
46 64 68 61 53 50 38 34 31 35 29 26 17 20 19 12 28 26 26 18 14 15 19 26 25 28 34 38 38 39 45 47 52 55 53 56 59 72 63 62 62 73 83
45 62 68 78 61 62 44 45 44 44 38 42 23 20 22 19 21 30 21 21 15 17 24 27 32 33 38 41 45 51 51 52 53 58 63 62 62 52 62 69 77 59 44
43 43 72 74 68 78 66 57 53 41 43 31 26 24 23 16 14 19 24 29 24 28 25 25 28 33 34 39 45 50 51 50 51 55 56 60 62 65 67 61 49 49 37
55 55 80 59 69 73 70 75 61 60 45 37 22 32 27 24 16 14 21 18 24 30 25 28 30 32 34 35 43 50 55 54 47 48 38 37 40 42 45 48 50 42 48
66 63 72 70 66 58 59 67 76 66 57 42 38 31 24 18 22 25 22 15 27 26 24 28 29 26 29 33 37 42 34 57 37 45 45 34 37 48 47 51 46 45 51
53 54 64 82 65 69 65 66 58 54 47 47 43 36 35 28 25 24 21 25 25 22 26 21 24 32 34 32 32 26 26 23 60 53 56 50 51 55 47 44 50 60 64
57 61 71 58 65 61 48 56 54 49 52 49 46 44 33 28 32 34 30 25 20 16 18 20 24 27 31 32 31 28 25 33 40 41 39 54 48 54 59 61 57 48 56
62 60 54 49 60 48 43 42 48 44 36 42 46 45 35 34 39 37 27 17 14 14 16 18 22 28 28 28 28 29 31 36 37 45 42 55 60 53 54 53 51 36 43
46 40 36 56 42 39 42 44 41 41 45 47 40 27 32 39 30 22 19 14 8 10 16 19 20 22 22 24 28 32 32 35 41 45 53 55 51 54 59 63 64 51 54
Wind_Direction_500mb
160 154 153 151 150 147 147 145 138 130 121 121 122 126 127 128 128 130 132 133 129 125 122 119 121 123 124 123 127 135 130 113 104 106 111 94 82 81 88 81 54 74 76
163 157 155 154 153 151 149 149 144 137 129 123 123 128 130 129 129 131 132 133 132 129 127 125 121 134 134 128 130 133 127 120 115 109 98 90 58 40 22 16 53 64 68
164 159 157 155 155 153 151 151 148 142 134 127 124 129 132 132 131 131 132 133 134 134 133 134 131 137 142 137 132 132 126 117 109 100 93 87 58 38 9 352 2 19 43
167 162 157 154 154 156 153 155 153 148 140 132 128 131 137 136 133 131 132 133 135 133 134 141 142 144 146 142 138 135 129 124 113 99 76 39 44 10 354 343 327 313 309
169 163 158 154 155 156 155 158 157 153 149 142 133 133 140 140 135 131 130 130 133 136 138 137 139 145 147 145 141 138 134 131 118 107 92 75 1 327 314 317 311 302 299
167 162 159 157 157 159 158 160 163 161 156 150 139 137 146 149 142 135 131 131 131 132 125 124 135 145 149 149 143 137 136 142 129 113 113 105 301 297 285 306 295 292 292
164 164 162 160 160 161 162 163 166 166 164 158 149 142 151 156 153 146 140 135 130 128 115 114 122 133 140 146 148 145 153 164 156 131 134 153 268 296 286 295 287 283 284
163 165 164 162 163 163 165 166 168 169 169 165 161 154 158 164 164 153 143 138 136 127 114 104 108 125 142 167 187 237 230 213 215 187 155 220 254 283 286 286 290 286 283
159 168 166 165 164 164 164 167 170 172 173 173 173 169 167 170 171 165 155 147 148 155 153 164 166 197 233 264 276 280 279 269 255 240 254 256 254 274 282 289 295 295 289
161 174 172 169 167 166 165 168 171 174 177 178 181 180 176 174 177 179 174 166 166 182 202 223 247 263 269 274 278 282 287 284 288 286 279 268 274 275 283 287 289 297 296
171 178 179 175 172 170 170 170 174 177 180 182 183 183 182 182 183 185 186 184 193 213 230 255 270 277 285 291 297 299 295 305 321 315 292 285 272 285 289 288 292 298 299
175 186 184 180 177 174 174 176 178 180 182 185 186 184 181 181 185 190 197 204 228 256 272 278 291 295 301 313 314 305 298 313 316 322 324 310 306 293 286 289 292 295 301
186 183 185 182 180 178 177 178 180 182 184 185 186 185 181 171 157 179 195 175 53 352 323 290 343 323 311 332 334 331 302 317 305 305 298 301 301 296 297 293 289 295 301
197 192 190 183 180 180 178 181 181 182 183 184 182 183 179 178 155 166 182 148 110 353 11 13 356 349 351 330 321 319 310 307 306 292 291 288 278 290 294 298 299 303 299
195 194 187 181 181 181 178 186 184 185 184 185 183 181 178 180 174 183 222 240 283 314 334 336 344 318 325 313 303 305 305 297 298 297 295 299 289 290 292 293 292 296 295
192 188 192 184 178 182 184 181 193 183 172 166 161 177 184 172 177 205 217 228 275 289 319 342 344 315 300 309 297 287 288 294 301 294 295 297 295 282 281 278 289 286 284
187 175 180 173 171 180 197 203 183 170 171 168 159 148 164 189 173 208 217 205 214 200 249 253 263 273 279 289 293 294 297 298 297 300 297 291 285 289 284 290 296 296 302
211 164 165 177 173 172 184 189 181 202 205 199 202 194 181 190 200 204 217 219 225 250 261 266 279 286 290 291 290 292 290 289 282 283 284 285 289 295 290 294 293 304 303
204 183 177 190 172 181 170 187 189 188 187 191 193 199 201 220 230 229 218 219 236 261 253 267 280 288 298 293 291 293 297 294 288 285 286 287 290 290 291 298 302 304 313
204 201 195 199 181 187 193 186 195 192 195 188 188 187 207 214 238 227 213 206 229 251 266 281 284 297 300 298 300 301 304 304 306 304 302 293 292 298 300 302 309 308 311
195 186 185 179 179 185 193 199 191 198 200 190 189 207 213 224 241 215 222 226 244 253 268 282 294 301 305 309 309 306 304 311 314 321 320 314 305 310 312 318 320 309 306
190 191 197 195 195 200 198 203 208 204 200 189 192 204 224 230 203 226 237 241 247 261 268 281 295 301 309 312 314 315 321 314 322 313 312 304 302 307 309 311 307 307 312
191 183 176 184 213 206 205 207 204 205 197 197 195 188 196 195 227 235 229 238 246 255 269 277 288 296 302 308 309 310 316 307 312 315 312 306 307 302 307 304 306 309 310
187 190 172 171 173 207 197 195 202 179 192 194 196 192 189 201 219 229 231 244 240 252 259 275 291 300 301 305 308 307 301 310 322 319 314 313 311 310 312 311 314 315 316
197 202 214 204 189 191 198 199 202 192 191 179 184 191 200 208 213 223 235 245 257 273 291 303 302 302 305 306 315 314 310 304 305 314 320 314 311 311 318 323 330 339 326
183 195 194 185 193 199 193 196 184 174 171 181 187 182 193 203 222 224 228 234 252 288 296 302 300 300 309 309 312 310 311 315 312 316 318 321 321 315 313 313 316 313 311
Wind_Speed_850mb
64 63 57 54 54 51 49 44 39 35 32 32 32 34 35 37 37 38 38 36 35 32 31 29 25 24 23 19 16 13 13 14 16 16 15 17 15 13 11 14 12 18 18
59 62 58 53 52 52 49 44 39 35 31 30 31 33 36 39 38 36 35 31 28 25 24 22 21 21 21 18 17 17 17 17 17 19 22 26 27 18 10 9 9 11 10
60 61 57 55 51 50 47 43 38 34 30 28 29 31 35 37 36 33 31 26 22 19 17 17 17 17 18 16 16 17 18 19 24 23 18 15 21 20 19 12 7 4 3
58 58 57 54 52 48 46 42 37 33 30 27 27 29 33 35 34 29 27 24 19 16 15 14 14 14 15 16 16 18 21 27 29 27 21 12 12 15 16 17 12 9 6
62 57 54 53 50 48 45 41 36 32 30 26 24 25 29 31 30 26 24 22 17 14 11 11 12 15 16 15 16 18 22 27 29 23 17 8 9 14 21 23 18 15 12
62 56 53 50 48 46 45 42 37 33 30 26 23 22 25 29 27 24 20 18 15 12 12 12 12 14 15 15 15 15 18 25 23 17 13 7 9 28 29 23 20 18 17
61 57 53 49 46 44 44 43 40 35 31 26 21 19 21 25 25 22 19 15 14 12 11 12 11 11 12 12 10 9 11 15 13 11 12 10 14 23 20 23 23 21 21
59 59 55 50 44 42 42 42 41 37 32 27 22 18 19 22 22 19 16 13 11 9 8 8 8 7 5 3 2 1 3 8 12 14 5 6 15 32 31 26 27 28 27
45 57 56 52 47 43 43 42 41 38 34 28 21 18 18 20 22 19 15 12 9 7 6 4 4 4 4 6 8 10 11 13 17 19 19 20 19 28 32 33 36 37 37
39 48 55 54 51 51 50 46 43 40 35 30 24 21 21 22 23 22 17 13 10 7 6 6 6 9 11 15 18 20 21 26 27 31 32 28 35 32 35 42 45 48 49
47 43 55 55 55 55 56 54 49 45 40 36 32 29 27 25 25 24 20 15 10 9 8 8 10 13 16 20 23 26 27 26 27 34 37 32 27 32 43 46 48 56 58
51 49 65 61 59 58 56 54 51 47 43 39 36 32 30 26 23 21 18 12 11 11 12 14 16 20 21 24 28 30 28 22 25 29 25 24 32 40 49 51 56 57 59
51 47 68 64 61 58 57 53 49 44 40 36 32 30 28 26 22 16 17 9 9 7 15 18 17 22 17 19 28 28 22 28 29 33 30 34 43 47 53 59 52 57 62
58 50 64 63 61 55 53 52 47 42 37 33 30 30 29 28 26 10 11 14 3 7 14 15 19 21 21 24 29 31 30 36 47 50 48 44 52 52 54 49 55 60 60
65 55 53 52 59 54 47 46 43 40 35 30 26 27 32 26 21 16 11 7 9 8 12 15 21 25 29 25 27 30 35 45 45 45 45 45 45 47 48 52 60 61 66
70 74 62 59 55 53 44 35 42 36 29 26 24 18 28 29 22 19 12 19 7 12 14 12 14 19 29 32 32 31 37 46 51 53 51 52 53 57 64 56 52 59 73
59 72 75 66 57 53 44 27 32 27 27 21 15 15 18 26 24 19 15 14 11 5 11 18 29 34 36 34 35 36 37 41 39 43 43 47 56 50 63 56 45 64 83
46 64 68 61 53 50 38 34 31 35 29 26 17 20 19 12 28 26 26 18 14 15 19 26 25 28 34 38 38 39 45 47 52 55 53 56 59 72 63 62 62 73 83
45 62 68 78 61 62 44 45 44 44 38 42 23 20 22 19 21 30 21 21 15 17 24 27 32 33 38 41 45 51 51 52 53 58 63 62 62 52 62 69 77 59 44
43 43 72 74 68 78 66 57 53 41 43 31 26 24 23 16 14 19 24 29 24 28 25 25 28 33 34 39 45 50 51 50 51 55 56 60 62 65 67 61 49 49 37
55 55 80 59 69 73 70 75 61 60 45 37 22 32 27 24 16 14 21 18 24 30 25 28 30 32 34 35 43 50 55 54 47 48 38 37 40 42 45 48 50 42 48
66 63 72 70 66 58 59 67 76 66 57 42 38 31 24 18 22 25 22 15 27 26 24 28 29 26 29 33 37 42 34 57 37 45 45 34 37 48 47 51 46 45 51
53 54 64 82 65 69 65 66 58 54 47 47 43 36 35 28 25 24 21 25 25 22 26 21 24 32 34 32 32 26 26 23 60 53 56 50 51 55 47 44 50 60 64
57 61 71 58 65 61 48 56 54 49 52 49 46 44 33 28 32 34 30 25 20 16 18 20 24 27 31 32 31 28 25 33 40 41 39 54 48 54 59 61 57 48 56
62 60 54 49 60 48 43 42 48 44 36 42 46 45 35 34 39 37 27 17 14 14 16 18 22 28 28 28 28 29 31 36 37 45 42 55 60 53 54 53 51 36 43
46 40 36 56 42 39 42 44 41 41 45 47 40 27 32 39 30 22 19 14 8 10 16 19 20 22 22 24 28 32 32 35 41 45 53 55 51 54 59 63 64 51 54
Wind_Direction_850mb
160 154 153 151 150 147 147 145 138 130 121 121 122 126 127 128 128 130 132 133 129 125 122 119 121 123 124 123 127 135 130 113 104 106 111 94 82 81 88 81 54 74 76
163 157 155 154 153 151 149 149 144 137 129 123 123 128 130 129 129 131 132 133 132 129 127 125 121 134 134 128 130 133 127 120 115 109 98 90 58 40 22 16 53 64 68
164 159 157 155 155 153 151 151 148 142 134 127 124 129 132 132 131 131 132 133 134 134 133 134 131 137 142 137 132 132 126 117 109 100 93 87 58 38 9 352 2 19 43
167 162 157 154 154 156 153 155 153 148 140 132 128 131 137 136 133 131 132 133 135 133 134 141 142 144 146 142 138 135 129 124 113 99 76 39 44 10 354 343 327 313 309
169 163 158 154 155 156 155 158 157 153 149 142 133 133 140 140 135 131 130 130 133 136 138 137 139 145 147 145 141 138 134 131 118 107 92 75 1 327 314 317 311 302 299
167 162 159 157 157 159 158 160 163 161 156 150 139 137 146 149 142 135 131 131 131 132 125 124 135 145 149 149 143 137 136 142 129 113 113 105 301 297 285 306 295 292 292
164 164 162 160 160 161 162 163 166 166 164 158 149 142 151 156 153 146 140 135 130 128 115 114 122 133 140 146 148 145 153 164 156 131 134 153 268 296 286 295 287 283 284
163 165 164 162 163 163 165 166 168 169 169 165 161 154 158 164 164 153 143 138 136 127 114 104 108 125 142 167 187 237 230 213 215 187 155 220 254 283 286 286 290 286 283
159 168 166 165 164 164 164 167 170 172 173 173 173 169 167 170 171 165 155 147 148 155 153 164 166 197 233 264 276 280 279 269 255 240 254 256 254 274 282 289 295 295 289
161 174 172 169 167 166 165 168 171 174 177 178 181 180 176 174 177 179 174 166 166 182 202 223 247 263 269 274 278 282 287 284 288 286 279 268 274 275 283 287 289 297 296
171 178 179 175 172 170 170 170 174 177 180 182 183 183 182 182 183 185 186 184 193 213 230 255 270 277 285 291 297 299 295 305 321 315 292 285 272 285 289 288 292 298 299
175 186 184 180 177 174 174 176 178 180 182 185 186 184 181 181 185 190 197 204 228 256 272 278 291 295 301 313 314 305 298 313 316 322 324 310 306 293 286 289 292 295 301
186 183 185 182 180 178 177 178 180 182 184 185 186 185 181 171 157 179 195 175 53 352 323 290 343 323 311 332 334 331 302 317 305 305 298 301 301 296 297 293 289 295 301
197 192 190 183 180 180 178 181 181 182 183 184 182 183 179 178 155 166 182 148 110 353 11 13 356 349 351 330 321 319 310 307 306 292 291 288 278 290 294 298 299 303 299
195 194 187 181 181 181 178 186 184 185 184 185 183 181 178 180 174 183 222 240 283 314 334 336 344 318 325 313 303 305 305 297 298 297 295 299 289 290 292 293 292 296 295
192 188 192 184 178 182 184 181 193 183 172 166 161 177 184 172 177 205 217 228 275 289 319 342 344 315 300 309 297 287 288 294 301 294 295 297 295 282 281 278 289 286 284
187 175 180 173 171 180 197 203 183 170 171 168 159 148 164 189 173 208 217 205 214 200 249 253 263 273 279 289 293 294 297 298 297 300 297 291 285 289 284 290 296 296 302
211 164 165 177 173 172 184 189 181 202 205 199 202 194 181 190 200 204 217 219 225 250 261 266 279 286 290 291 290 292 290 289 282 283 284 285 289 295 290 294 293 304 303
204 183 177 190 172 181 170 187 189 188 187 191 193 199 201 220 230 229 218 219 236 261 253 267 280 288 298 293 291 293 297 294 288 285 286 287 290 290 291 298 302 304 313
204 201 195 199 181 187 193 186 195 192 195 188 188 187 207 214 238 227 213 206 229 251 266 281 284 297 300 298 300 301 304 304 306 304 302 293 292 298 300 302 309 308 311
195 186 185 179 179 185 193 199 191 198 200 190 189 207 213 224 241 215 222 226 244 253 268 282 294 301 305 309 309 306 304 311 314 321 320 314 305 310 312 318 320 309 306
190 191 197 195 195 200 198 203 208 204 200 189 192 204 224 230 203 226 237 241 247 261 268 281 295 301 309 312 314 315 321 314 322 313 312 304 302 307 309 311 307 307 312
191 183 176 184 213 206 205 207 204 205 197 197 195 188 196 195 227 235 229 238 246 255 269 277 288 296 302 308 309 310 316 307 312 315 312 306 307 302 307 304 306 309 310
187 190 172 171 173 207 197 195 202 179 192 194 196 192 189 201 219 229 231 244 240 252 259 275 291 300 301 305 308 307 301 310 322 319 314 313 311 310 312 311 314 315 316
197 202 214 204 189 191 198 199 202 192 191 179 184 191 200 208 213 223 235 245 257 273 291 303 302 302 305 306 315 314 310 304 305 314 320 314 311 311 318 323 330 339 326
183 195 194 185 193 199 193 196 184 174 171 181 187 182 193 203 222 224 228 234 252 288 296 302 300 300 309 309 312 310 311 315 312 316 318 321 321 315 313 313 316 313 311